Terminal Aerodrome Forecast
Issued by NWS

Home | Current Version | Previous Version | Text Only | Print | Product List | Glossary Off
Versions: 1 2 3 4 5 6 7 8 9 10 11 12 13 14 15 16 17 18 19 20 21 22 23 24 25 26

000
FTUS43 KABR 160500
TAFPIR
TAF
KPIR 160532Z 1606/1706 34015G23KT P6SM OVC016
     FM160900 33008KT P6SM OVC015
     FM161800 VRB06KT P6SM OVC015=

USA.gov is the U.S. government's official web portal to all federal, state and local government web resources and services.